Weather History for Rhinelander, WI

Change the Weather History Date:

Monday, February 18, 2013

  Actual Average Record
Temperature  
Mean Temperature 27 °F 17 °F  
Max Temperature 35 °F 27 °F 54 °F (1981)
Min Temperature 19 °F 7 °F -28 °F (2006)
Degree Days  
Heating Degree Days 38 48  
Month to date heating degree days 958 902  
Since 1 July heating degree days 5961 6163  
Cooling Degree Days 0 0  
Month to date cooling degree days 0 0  
Year to date cooling degree days 0 0  
Moisture  
Dew Point 23 °F    
Average Humidity 74    
Maximum Humidity 85    
Minimum Humidity 62    
Precipitation  
Precipitation 0.06 in 0.03 in 0.42 in (1961)
Month to date precipitation 1.16 0.56  
Year to date precipitation 2.35 1.67  
Snow  
Snow 1.00 in - 8.00 in (1961)
Month to date snowfall 13.5  
Since 1 July snowfall 44.1  
Snow Depth 14.00 in    
Sea Level Pressure  
Sea Level Pressure 29.55 in    
Wind  
Wind Speed 8 mph (SW)    
Max Wind Speed 15 mph    
Max Gust Speed 22 mph    
Visibility 6 miles    
Events Fog , Snow    
T = Trace of Precipitation, MM = Missing Value Source: NWS Daily Summary

Daily Weather History Graph

Daily Weather History Graph

Search for Another Location

Airport:

Trip Planner

Search our weather history database for the weather conditions in past years. The results will help you decide how hot, cold, wet, or windy it might be!

Date:

Astronomy

Feb. 18, 2013 Rise Set
Actual Time 6:54 AM CST 5:29 PM CST
Civil Twilight 6:24 AM CST 5:59 PM CST
Nautical Twilight 5:49 AM CST 6:34 PM CST
Astronomical Twilight 5:15 AM CST 7:08 PM CST
Moon 11:06 AM CST (2/18) 1:42 AM CST (2/18)
Length of Visible Light 11h 35m
Length of Day
10h 34m
First Quarter, 58% of the Moon is Illuminated
Feb 18
First Quarter
Feb 25
Full
Mar 4
Last Quarter
Mar 11
New
Mar 19
First Quarter

Hourly Weather History & Observations

Time (CST) Temp. Windchill Dew Point Humidity Pressure Visibility Wind Dir Wind Speed Gust Speed Precip Events Conditions
12:53 AM 19.9 °F 7.9 °F 10.0 °F 65% 29.87 in 10.0 mi SSE 11.5 mph - N/A   Overcast
1:53 AM 19.9 °F 9.3 °F 10.0 °F 65% 29.83 in 10.0 mi SSE 9.2 mph 17.3 mph N/A   Mostly Cloudy
2:53 AM 19.9 °F 10.1 °F 10.0 °F 65% 29.79 in 10.0 mi SSE 8.1 mph - N/A   Mostly Cloudy
3:53 AM 21.9 °F 11.0 °F 12.0 °F 66% 29.75 in 10.0 mi SSE 10.4 mph - N/A   Overcast
4:53 AM 21.9 °F 10.4 °F 12.9 °F 68% 29.74 in 10.0 mi SSE 11.5 mph 20.7 mph N/A   Clear
5:53 AM 21.0 °F 11.4 °F 12.9 °F 71% 29.72 in 10.0 mi SSE 8.1 mph - N/A   Clear
6:53 AM 21.9 °F 12.5 °F 14.0 °F 72% 29.69 in 10.0 mi SE 8.1 mph 17.3 mph N/A   Clear
7:53 AM 23.0 °F 13.1 °F 15.1 °F 72% 29.67 in 10.0 mi SSE 9.2 mph - N/A   Clear
8:53 AM 25.0 °F 15.5 °F 17.1 °F 72% 29.65 in 10.0 mi SSE 9.2 mph - N/A   Clear
9:53 AM 26.1 °F 18.4 °F 18.0 °F 71% 29.64 in 10.0 mi South 6.9 mph - N/A   Clear
10:53 AM 30.0 °F 21.7 °F 19.9 °F 66% 29.60 in 10.0 mi South 9.2 mph - N/A   Clear
11:53 AM 33.1 °F 26.9 °F 23.0 °F 66% 29.57 in 10.0 mi South 6.9 mph - N/A   Scattered Clouds
12:53 PM 34.0 °F 29.8 °F 23.0 °F 64% 29.54 in 10.0 mi SSW 4.6 mph - N/A   Clear
1:23 PM 33.8 °F 30.8 °F 24.8 °F 70% 29.47 in 10.0 mi South 3.5 mph - N/A   Mostly Cloudy
1:53 PM 35.1 °F 28.6 °F 24.1 °F 64% 29.52 in 10.0 mi SSW 8.1 mph - N/A   Overcast
2:53 PM 34.0 °F 28.8 °F 24.1 °F 67% 29.52 in 10.0 mi SSE 5.8 mph - N/A   Overcast
3:53 PM 34.0 °F 31.0 °F 24.1 °F 67% 29.53 in 10.0 mi SSW 3.5 mph - N/A   Overcast
4:15 PM 33.8 °F 27.0 °F 24.8 °F 70% 29.47 in 1.8 mi WSW 8.1 mph - 0.00 in Snow Light Snow
4:51 PM 30.2 °F 24.3 °F 28.4 °F 93% 29.47 in 0.5 mi West 5.8 mph - 0.00 in Fog , Snow Light Snow
4:53 PM 30.9 °F 25.2 °F 28.0 °F 89% 29.54 in 0.5 mi West 5.8 mph - 0.00 in Fog , Snow Light Snow
5:04 PM 30.2 °F 23.4 °F 28.4 °F 93% 29.47 in 0.5 mi West 6.9 mph - 0.01 in Fog , Snow Snow
5:12 PM 30.2 °F 24.3 °F 28.4 °F 93% 29.47 in 0.5 mi West 5.8 mph - 0.02 in Fog , Snow Snow
5:47 PM 30.2 °F 23.4 °F 26.6 °F 86% 29.47 in 2.0 mi West 6.9 mph - 0.02 in Snow Light Snow
5:53 PM 30.9 °F 23.5 °F 27.0 °F 85% 29.53 in 2.0 mi West 8.1 mph - 0.02 in Snow Light Snow
6:10 PM 30.2 °F 25.4 °F 26.6 °F 86% 29.47 in 3.0 mi WSW 4.6 mph - 0.00 in   Overcast
6:17 PM 30.2 °F 25.4 °F 26.6 °F 86% 29.47 in 2.0 mi West 4.6 mph - 0.00 in Snow Light Snow
6:25 PM 30.2 °F 26.7 °F 26.6 °F 86% 29.46 in 1.2 mi West 3.5 mph - 0.00 in Snow Light Snow
6:53 PM 30.0 °F 25.2 °F 27.0 °F 88% 29.53 in 1.8 mi WNW 4.6 mph - 0.01 in Snow Light Snow
6:57 PM 30.2 °F 25.4 °F 26.6 °F 86% 29.47 in 2.0 mi WNW 4.6 mph - 0.00 in Snow Light Snow
7:14 PM 30.2 °F 25.4 °F 26.6 °F 86% 29.47 in 3.0 mi West 4.6 mph - 0.00 in   Overcast
7:26 PM 30.2 °F 24.3 °F 26.6 °F 86% 29.47 in 4.0 mi West 5.8 mph - 0.00 in   Overcast
7:40 PM 30.2 °F 25.4 °F 26.6 °F 86% 29.47 in 4.0 mi West 4.6 mph - 0.00 in   Overcast
7:53 PM 30.0 °F 24.1 °F 27.0 °F 88% 29.53 in 4.0 mi West 5.8 mph - 0.00 in   Overcast
8:33 PM 30.2 °F 25.4 °F 26.6 °F 86% 29.44 in 2.0 mi WNW 4.6 mph - 0.00 in Snow Light Snow
8:51 PM 30.2 °F 23.4 °F 26.6 °F 86% 29.43 in 4.0 mi NW 6.9 mph - 0.00 in Snow Light Snow
8:53 PM 30.0 °F 23.2 °F 26.1 °F 85% 29.49 in 4.0 mi NW 6.9 mph - 0.00 in Snow Light Snow
9:40 PM 30.2 °F 22.6 °F 24.8 °F 80% 29.43 in 6.0 mi NNW 8.1 mph - 0.00 in   Haze
9:53 PM 30.0 °F 22.4 °F 25.0 °F 82% 29.49 in 6.0 mi NW 8.1 mph - 0.00 in   Haze
10:53 PM 27.0 °F 16.7 °F 23.0 °F 85% 29.49 in 6.0 mi NNW 11.5 mph 18.4 mph N/A   Overcast
11:53 PM 26.1 °F 17.6 °F 23.0 °F 88% 29.49 in 10.0 mi NW 8.1 mph 17.3 mph N/A   Overcast